QPF
0.04 0.06 0.08 0.09 0.10 0.09 0.07 0.08 0.09 0.11 0.13 0.10 0.09 0.09 0.09 0.10 0.10 0.10 0.09 0.07 0.05 0.04 0.03 0.03 0.04 0.04 0.04 0.03 0.03 0.03 0.02 0.02 0.01 0.01 0.01 0.01 0.02 0.03 0.03 0.03 0.03 0.04 0.05
0.03 0.04 0.06 0.08 0.08 0.08 0.07 0.07 0.08 0.09 0.12 0.12 0.11 0.10 0.09 0.10 0.12 0.12 0.11 0.09 0.07 0.05 0.04 0.04 0.04 0.04 0.04 0.05 0.05 0.05 0.04 0.03 0.02 0.01 0.02 0.02 0.02 0.02 0.02 0.02 0.02 0.02 0.03
0.03 0.03 0.04 0.05 0.06 0.07 0.06 0.05 0.05 0.07 0.10 0.13 0.11 0.10 0.10 0.10 0.11 0.12 0.13 0.13 0.12 0.09 0.06 0.04 0.04 0.04 0.04 0.04 0.04 0.04 0.04 0.03 0.02 0.02 0.02 0.02 0.02 0.02 0.02 0.02 0.02 0.02 0.02
0.03 0.03 0.03 0.03 0.04 0.05 0.06 0.05 0.03 0.04 0.07 0.09 0.10 0.09 0.10 0.10 0.10 0.10 0.10 0.11 0.11 0.11 0.08 0.06 0.04 0.03 0.03 0.03 0.03 0.03 0.03 0.03 0.03 0.03 0.02 0.02 0.02 0.02 0.02 0.02 0.02 0.01 0.01
0.05 0.05 0.04 0.03 0.02 0.04 0.06 0.06 0.04 0.03 0.04 0.06 0.08 0.09 0.09 0.08 0.09 0.09 0.08 0.08 0.09 0.10 0.10 0.07 0.05 0.04 0.04 0.04 0.04 0.04 0.04 0.04 0.04 0.04 0.03 0.03 0.03 0.02 0.02 0.02 0.02 0.02 0.01
0.07 0.07 0.06 0.04 0.03 0.03 0.04 0.05 0.04 0.04 0.04 0.05 0.05 0.07 0.07 0.07 0.08 0.08 0.08 0.08 0.07 0.07 0.08 0.08 0.06 0.05 0.05 0.05 0.05 0.04 0.04 0.04 0.04 0.04 0.04 0.04 0.03 0.03 0.02 0.02 0.02 0.02 0.02
0.05 0.05 0.06 0.06 0.06 0.06 0.06 0.06 0.06 0.05 0.05 0.05 0.05 0.05 0.06 0.06 0.06 0.06 0.06 0.07 0.07 0.07 0.06 0.07 0.06 0.05 0.04 0.03 0.03 0.04 0.03 0.03 0.03 0.03 0.03 0.03 0.03 0.02 0.02 0.02 0.02 0.02 0.02
0.03 0.04 0.05 0.04 0.05 0.05 0.05 0.06 0.06 0.06 0.06 0.05 0.04 0.04 0.04 0.05 0.06 0.05 0.05 0.05 0.05 0.05 0.05 0.06 0.06 0.06 0.05 0.04 0.03 0.03 0.02 0.02 0.02 0.02 0.02 0.03 0.03 0.03 0.03 0.02 0.02 0.02 0.02
0.03 0.03 0.04 0.04 0.03 0.03 0.03 0.04 0.05 0.05 0.05 0.05 0.05 0.06 0.05 0.04 0.04 0.04 0.04 0.04 0.03 0.03 0.03 0.04 0.04 0.05 0.05 0.06 0.04 0.03 0.02 0.02 0.02 0.02 0.02 0.02 0.02 0.03 0.03 0.03 0.03 0.02 0.02
0.03 0.03 0.03 0.03 0.03 0.02 0.02 0.02 0.03 0.04 0.04 0.04 0.05 0.05 0.04 0.03 0.03 0.04 0.05 0.05 0.04 0.03 0.03 0.02 0.03 0.04 0.04 0.05 0.04 0.04 0.03 0.02 0.02 0.02 0.02 0.02 0.02 0.02 0.02 0.02 0.02 0.03 0.02
0.03 0.03 0.02 0.02 0.02 0.02 0.02 0.02 0.02 0.02 0.03 0.03 0.03 0.03 0.04 0.04 0.03 0.04 0.05 0.05 0.05 0.04 0.03 0.03 0.02 0.03 0.04 0.04 0.04 0.04 0.03 0.03 0.02 0.02 0.01 0.01 0.01 0.01 0.01 0.01 0.02 0.02 0.02
0.03 0.02 0.02 0.02 0.02 0.02 0.02 0.02 0.03 0.02 0.02 0.02 0.03 0.03 0.03 0.04 0.04 0.05 0.06 0.05 0.04 0.04 0.04 0.03 0.03 0.03 0.04 0.04 0.04 0.04 0.05 0.04 0.03 0.02 0.01 0.01 0.01 0.00 0.01 0.01 0.01 0.01 0.01
0.03 0.02 0.02 0.01 0.02 0.02 0.02 0.02 0.03 0.03 0.03 0.02 0.03 0.03 0.03 0.04 0.05 0.06 0.07 0.07 0.05 0.05 0.04 0.04 0.04 0.04 0.04 0.05 0.05 0.05 0.05 0.04 0.04 0.03 0.02 0.01 0.01 0.01 0.01 0.01 0.01 0.01 0.01
0.04 0.03 0.02 0.02 0.02 0.02 0.02 0.03 0.04 0.04 0.03 0.03 0.04 0.04 0.04 0.05 0.05 0.06 0.07 0.08 0.08 0.07 0.06 0.06 0.06 0.06 0.05 0.04 0.05 0.05 0.04 0.05 0.04 0.03 0.02 0.02 0.01 0.01 0.01 0.01 0.01 0.01 0.01
0.04 0.03 0.03 0.03 0.02 0.03 0.03 0.05 0.05 0.04 0.04 0.04 0.05 0.05 0.04 0.04 0.05 0.06 0.06 0.07 0.08 0.07 0.08 0.09 0.08 0.07 0.06 0.05 0.04 0.04 0.04 0.04 0.04 0.03 0.02 0.02 0.02 0.02 0.02 0.01 0.01 0.01 0.01
0.05 0.04 0.03 0.04 0.04 0.05 0.05 0.05 0.05 0.05 0.04 0.05 0.07 0.06 0.04 0.04 0.05 0.05 0.05 0.05 0.07 0.08 0.08 0.07 0.07 0.06 0.04 0.04 0.03 0.03 0.04 0.04 0.03 0.03 0.03 0.02 0.02 0.02 0.02 0.01 0.01 0.01 0.01
0.05 0.06 0.06 0.05 0.05 0.06 0.05 0.05 0.05 0.04 0.04 0.06 0.08 0.07 0.06 0.05 0.05 0.06 0.06 0.07 0.07 0.07 0.07 0.06 0.05 0.05 0.04 0.03 0.03 0.03 0.03 0.03 0.03 0.03 0.03 0.03 0.02 0.02 0.02 0.01 0.01 0.01 0.01
0.03 0.05 0.06 0.07 0.06 0.05 0.05 0.05 0.05 0.05 0.05 0.07 0.09 0.10 0.08 0.07 0.08 0.08 0.08 0.08 0.09 0.09 0.07 0.06 0.05 0.05 0.05 0.04 0.04 0.04 0.03 0.03 0.03 0.03 0.02 0.02 0.02 0.02 0.02 0.02 0.01 0.01 0.01
0.03 0.03 0.05 0.06 0.05 0.06 0.06 0.06 0.06 0.06 0.06 0.06 0.07 0.09 0.10 0.09 0.10 0.10 0.09 0.07 0.06 0.07 0.07 0.06 0.05 0.04 0.05 0.05 0.05 0.04 0.04 0.03 0.03 0.02 0.02 0.03 0.03 0.03 0.02 0.02 0.01 0.02 0.02
0.03 0.03 0.04 0.05 0.05 0.06 0.06 0.07 0.07 0.07 0.07 0.07 0.07 0.09 0.11 0.10 0.09 0.10 0.09 0.07 0.05 0.05 0.05 0.05 0.05 0.05 0.04 0.04 0.05 0.05 0.04 0.04 0.03 0.03 0.03 0.03 0.03 0.03 0.02 0.02 0.02 0.02 0.02
0.03 0.03 0.03 0.04 0.05 0.05 0.06 0.07 0.08 0.08 0.08 0.07 0.09 0.11 0.11 0.11 0.11 0.10 0.09 0.08 0.07 0.06 0.05 0.06 0.06 0.05 0.05 0.04 0.04 0.04 0.04 0.04 0.04 0.04 0.03 0.03 0.03 0.03 0.03 0.03 0.03 0.03 0.03
0.03 0.03 0.03 0.04 0.04 0.05 0.06 0.06 0.06 0.07 0.07 0.08 0.09 0.10 0.10 0.11 0.11 0.10 0.09 0.10 0.10 0.08 0.07 0.07 0.07 0.06 0.05 0.04 0.04 0.04 0.04 0.03 0.03 0.03 0.03 0.03 0.03 0.03 0.03 0.03 0.03 0.03 0.03
0.03 0.03 0.03 0.04 0.05 0.05 0.06 0.06 0.06 0.06 0.06 0.06 0.07 0.08 0.08 0.09 0.10 0.09 0.09 0.09 0.09 0.08 0.07 0.06 0.06 0.05 0.04 0.04 0.04 0.04 0.04 0.03 0.02 0.03 0.03 0.03 0.03 0.03 0.03 0.03 0.03 0.03 0.03
0.03 0.04 0.04 0.05 0.05 0.04 0.05 0.05 0.04 0.04 0.04 0.04 0.05 0.06 0.07 0.07 0.07 0.07 0.08 0.08 0.07 0.06 0.05 0.05 0.04 0.04 0.03 0.04 0.04 0.03 0.03 0.03 0.03 0.03 0.03 0.04 0.04 0.03 0.03 0.03 0.03 0.02 0.02
0.03 0.03 0.03 0.03 0.03 0.03 0.03 0.03 0.03 0.04 0.04 0.04 0.04 0.05 0.05 0.05 0.05 0.05 0.05 0.05 0.04 0.04 0.03 0.03 0.03 0.03 0.03 0.02 0.02 0.03 0.03 0.03 0.04 0.04 0.04 0.04 0.04 0.03 0.03 0.03 0.02 0.02 0.02
0.03 0.03 0.04 0.03 0.03 0.03 0.03 0.03 0.03 0.03 0.03 0.03 0.03 0.03 0.03 0.03 0.03 0.03 0.03 0.02 0.02 0.02 0.02 0.02 0.02 0.02 0.02 0.02 0.02 0.02 0.03 0.03 0.03 0.04 0.04 0.04 0.04 0.03 0.02 0.02 0.02 0.02 0.02
MSLP
1026.00 1025.21 1024.38 1023.54 1022.71 1021.92 1021.19 1020.52 1019.90 1019.31 1018.72 1018.11 1017.42 1016.65 1015.79 1014.82 1013.76 1012.65 1011.51 1010.38 1009.31 1008.33 1007.48 1006.79 1006.27 1005.93 1005.77 1005.79 1005.95 1006.24 1006.60 1007.00 1007.41 1007.79 1008.12 1008.41 1008.65 1008.88 1009.14 1009.45 1009.87 1010.42 1011.11
1025.39 1024.55 1023.68 1022.80 1021.95 1021.15 1020.41 1019.75 1019.14 1018.57 1018.01 1017.43 1016.79 1016.07 1015.25 1014.34 1013.34 1012.26 1011.14 1010.01 1008.91 1007.88 1006.95 1006.16 1005.54 1005.10 1004.86 1004.83 1004.98 1005.29 1005.72 1006.24 1006.79 1007.34 1007.87 1008.34 1008.78 1009.19 1009.60 1010.07 1010.60 1011.24 1012.00
1024.73 1023.87 1022.98 1022.09 1021.23 1020.42 1019.67 1018.99 1018.36 1017.78 1017.21 1016.63 1016.01 1015.33 1014.57 1013.73 1012.80 1011.80 1010.74 1009.64 1008.55 1007.48 1006.49 1005.61 1004.88 1004.32 1003.98 1003.86 1003.96 1004.27 1004.74 1005.35 1006.03 1006.76 1007.48 1008.18 1008.84 1009.47 1010.11 1010.76 1011.46 1012.23 1013.09
1024.06 1023.20 1022.32 1021.44 1020.59 1019.76 1018.99 1018.27 1017.60 1016.96 1016.35 1015.75 1015.13 1014.47 1013.77 1013.00 1012.16 1011.26 1010.28 1009.25 1008.18 1007.11 1006.08 1005.11 1004.27 1003.60 1003.14 1002.92 1002.95 1003.22 1003.71 1004.39 1005.19 1006.07 1006.99 1007.91 1008.81 1009.68 1010.55 1011.41 1012.30 1013.23 1014.21
1023.41 1022.57 1021.71 1020.85 1020.00 1019.16 1018.35 1017.58 1016.84 1016.14 1015.47 1014.82 1014.18 1013.54 1012.88 1012.18 1011.44 1010.63 1009.75 1008.79 1007.77 1006.71 1005.64 1004.62 1003.69 1002.91 1002.34 1002.02 1001.98 1002.21 1002.71 1003.43 1004.33 1005.35 1006.44 1007.56 1008.67 1009.77 1010.85 1011.92 1012.99 1014.08 1015.18
1022.78 1021.97 1021.14 1020.29 1019.43 1018.57 1017.72 1016.89 1016.08 1015.30 1014.56 1013.86 1013.19 1012.55 1011.93 1011.29 1010.63 1009.90 1009.11 1008.22 1007.24 1006.20 1005.12 1004.05 1003.06 1002.21 1001.56 1001.17 1001.08 1001.29 1001.79 1002.56 1003.53 1004.66 1005.89 1007.16 1008.45 1009.72 1010.97 1012.21 1013.43 1014.65 1015.86
1022.18 1021.37 1020.55 1019.71 1018.83 1017.95 1017.05 1016.16 1015.28 1014.43 1013.63 1012.88 1012.19 1011.55 1010.95 1010.35 1009.74 1009.08 1008.34 1007.50 1006.55 1005.52 1004.44 1003.36 1002.34 1001.46 1000.78 1000.38 1000.28 1000.50 1001.03 1001.84 1002.88 1004.10 1005.42 1006.79 1008.19 1009.57 1010.93 1012.27 1013.59 1014.89 1016.17
1021.56 1020.74 1019.90 1019.03 1018.13 1017.21 1016.27 1015.33 1014.40 1013.51 1012.67 1011.90 1011.20 1010.56 1009.96 1009.39 1008.80 1008.15 1007.43 1006.61 1005.68 1004.66 1003.58 1002.51 1001.51 1000.65 1000.01 999.65 999.61 999.89 1000.49 1001.37 1002.47 1003.74 1005.11 1006.54 1007.98 1009.40 1010.80 1012.16 1013.51 1014.83 1016.13
1020.89 1020.02 1019.13 1018.21 1017.27 1016.31 1015.33 1014.36 1013.42 1012.52 1011.67 1010.90 1010.20 1009.57 1008.98 1008.40 1007.81 1007.15 1006.42 1005.58 1004.64 1003.62 1002.56 1001.53 1000.59 999.82 999.28 999.03 999.11 999.51 1000.21 1001.17 1002.35 1003.66 1005.06 1006.49 1007.91 1009.31 1010.67 1012.00 1013.30 1014.59 1015.86
1020.13 1019.17 1018.20 1017.21 1016.21 1015.21 1014.21 1013.23 1012.30 1011.42 1010.61 1009.87 1009.20 1008.59 1008.00 1007.41 1006.79 1006.10 1005.32 1004.45 1003.49 1002.48 1001.46 1000.50 999.67 999.03 998.65 998.58 998.82 999.38 1000.22 1001.30 1002.54 1003.90 1005.30 1006.70 1008.07 1009.39 1010.67 1011.91 1013.13 1014.34 1015.54
1019.26 1018.19 1017.11 1016.03 1014.96 1013.91 1012.90 1011.94 1011.04 1010.21 1009.46 1008.78 1008.17 1007.58 1007.01 1006.41 1005.76 1005.03 1004.21 1003.30 1002.33 1001.34 1000.38 999.53 998.84 998.38 998.20 998.34 998.80 999.54 1000.54 1001.73 1003.06 1004.44 1005.84 1007.20 1008.49 1009.72 1010.89 1012.02 1013.13 1014.24 1015.35
1018.27 1017.07 1015.87 1014.69 1013.55 1012.46 1011.44 1010.50 1009.65 1008.89 1008.22 1007.62 1007.07 1006.54 1005.99 1005.39 1004.73 1003.97 1003.13 1002.21 1001.26 1000.32 999.46 998.74 998.22 997.97 998.01 998.38 999.05 999.99 1001.14 1002.45 1003.84 1005.25 1006.63 1007.95 1009.17 1010.31 1011.37 1012.39 1013.39 1014.40 1015.42
1017.18 1015.84 1014.51 1013.23 1012.01 1010.88 1009.85 1008.94 1008.14 1007.46 1006.87 1006.35 1005.88 1005.41 1004.90 1004.33 1003.68 1002.94 1002.11 1001.23 1000.34 999.50 998.76 998.21 997.90 997.86 998.13 998.71 999.58 1000.68 1001.97 1003.37 1004.81 1006.24 1007.60 1008.87 1010.03 1011.09 1012.08 1013.02 1013.93 1014.85 1015.79
1016.01 1014.54 1013.10 1011.72 1010.43 1009.26 1008.22 1007.32 1006.56 1005.93 1005.42 1004.97 1004.57 1004.17 1003.72 1003.21 1002.61 1001.93 1001.18 1000.39 999.61 998.92 998.36 998.00 997.89 998.07 998.54 999.31 1000.33 1001.56 1002.93 1004.38 1005.84 1007.27 1008.61 1009.84 1010.97 1011.99 1012.93 1013.83 1014.70 1015.56 1016.44
1014.81 1013.24 1011.70 1010.24 1008.88 1007.66 1006.59 1005.69 1004.95 1004.35 1003.87 1003.49 1003.14 1002.81 1002.43 1002.01 1001.50 1000.93 1000.31 999.68 999.08 998.58 998.23 998.08 998.18 998.55 999.19 1000.10 1001.22 1002.52 1003.92 1005.38 1006.83 1008.23 1009.54 1010.75 1011.86 1012.87 1013.81 1014.71 1015.57 1016.42 1017.27
1013.64 1011.99 1010.39 1008.85 1007.44 1006.17 1005.06 1004.13 1003.37 1002.77 1002.30 1001.93 1001.63 1001.35 1001.05 1000.73 1000.35 999.94 999.50 999.07 998.70 998.43 998.31 998.39 998.69 999.22 999.99 1000.98 1002.15 1003.45 1004.83 1006.25 1007.65 1009.00 1010.28 1011.48 1012.59 1013.63 1014.60 1015.53 1016.42 1017.29 1018.14
1012.56 1010.87 1009.22 1007.65 1006.18 1004.86 1003.70 1002.72 1001.91 1001.27 1000.77 1000.39 1000.10 999.86 999.64 999.42 999.20 998.97 998.75 998.56 998.44 998.42 998.54 998.83 999.31 999.97 1000.83 1001.85 1003.02 1004.28 1005.60 1006.94 1008.27 1009.57 1010.81 1012.00 1013.13 1014.20 1015.23 1016.21 1017.16 1018.07 1018.94
1011.63 1009.94 1008.27 1006.68 1005.18 1003.81 1002.60 1001.54 1000.66 999.95 999.39 998.97 998.67 998.45 998.30 998.19 998.12 998.08 998.08 998.13 998.27 998.49 998.84 999.32 999.95 1000.72 1001.63 1002.65 1003.77 1004.96 1006.20 1007.45 1008.70 1009.94 1011.15 1012.33 1013.48 1014.60 1015.68 1016.74 1017.74 1018.70 1019.60
1010.92 1009.25 1007.60 1006.01 1004.49 1003.09 1001.82 1000.69 999.73 998.94 998.30 997.83 997.49 997.28 997.17 997.16 997.22 997.36 997.56 997.84 998.20 998.65 999.19 999.84 1000.58 1001.42 1002.35 1003.35 1004.41 1005.53 1006.67 1007.83 1009.01 1010.19 1011.37 1012.55 1013.72 1014.88 1016.02 1017.13 1018.19 1019.19 1020.11
1010.48 1008.85 1007.25 1005.68 1004.17 1002.75 1001.44 1000.26 999.22 998.34 997.63 997.09 996.72 996.50 996.43 996.48 996.65 996.93 997.30 997.76 998.31 998.93 999.62 1000.38 1001.20 1002.08 1003.01 1003.98 1004.99 1006.03 1007.09 1008.19 1009.30 1010.44 1011.60 1012.78 1013.97 1015.16 1016.33 1017.47 1018.56 1019.58 1020.51
1010.35 1008.80 1007.25 1005.73 1004.25 1002.84 1001.51 1000.29 999.20 998.26 997.49 996.90 996.49 996.26 996.20 996.30 996.55 996.92 997.41 998.00 998.66 999.39 1000.18 1001.01 1001.87 1002.77 1003.68 1004.62 1005.58 1006.56 1007.57 1008.62 1009.69 1010.80 1011.95 1013.13 1014.32 1015.51 1016.69 1017.83 1018.92 1019.93 1020.84
1010.57 1009.10 1007.63 1006.18 1004.75 1003.37 1002.05 1000.83 999.72 998.76 997.95 997.33 996.90 996.66 996.60 996.73 997.01 997.44 997.98 998.63 999.35 1000.13 1000.95 1001.80 1002.67 1003.55 1004.44 1005.35 1006.27 1007.22 1008.20 1009.21 1010.27 1011.36 1012.50 1013.66 1014.84 1016.01 1017.16 1018.27 1019.32 1020.28 1021.15
1011.15 1009.78 1008.40 1007.03 1005.67 1004.35 1003.07 1001.88 1000.79 999.83 999.03 998.40 997.97 997.73 997.67 997.80 998.09 998.52 999.07 999.72 1000.43 1001.20 1002.00 1002.83 1003.66 1004.51 1005.36 1006.24 1007.13 1008.06 1009.02 1010.02 1011.06 1012.15 1013.26 1014.39 1015.53 1016.66 1017.75 1018.79 1019.76 1020.65 1021.46
1012.07 1010.79 1009.51 1008.23 1006.96 1005.71 1004.51 1003.38 1002.34 1001.43 1000.66 1000.05 999.63 999.40 999.34 999.46 999.73 1000.13 1000.64 1001.24 1001.91 1002.61 1003.35 1004.11 1004.88 1005.67 1006.48 1007.32 1008.18 1009.09 1010.03 1011.02 1012.05 1013.10 1014.18 1015.27 1016.35 1017.39 1018.40 1019.34 1020.22 1021.02 1021.74
1013.27 1012.09 1010.91 1009.72 1008.54 1007.39 1006.27 1005.22 1004.26 1003.41 1002.70 1002.15 1001.76 1001.54 1001.48 1001.58 1001.81 1002.16 1002.60 1003.12 1003.69 1004.31 1004.95 1005.62 1006.31 1007.03 1007.78 1008.56 1009.39 1010.26 1011.18 1012.14 1013.14 1014.15 1015.17 1016.19 1017.18 1018.13 1019.03 1019.86 1020.63 1021.32 1021.96
1014.70 1013.61 1012.51 1011.42 1010.34 1009.27 1008.26 1007.30 1006.43 1005.66 1005.02 1004.52 1004.17 1003.97 1003.91 1003.98 1004.16 1004.44 1004.80 1005.23 1005.69 1006.20 1006.73 1007.29 1007.89 1008.52 1009.19 1009.91 1010.69 1011.51 1012.39 1013.29 1014.23 1015.18 1016.12 1017.05 1017.93 1018.77 1019.55 1020.27 1020.94 1021.54 1022.08
Thickness
5427 5433 5440 5447 5452 5459 5467 5472 5478 5484 5490 5496 5502 5508 5513 5518 5522 5526 5530 5534 5537 5540 5542 5544 5547 5548 5550 5550 5551 5552 5553 5553 5552 5551 5550 5551 5552 5552 5552 5553 5552 5552 5551
5413 5419 5426 5432 5439 5446 5453 5460 5465 5471 5477 5483 5490 5496 5501 5506 5511 5516 5520 5524 5528 5530 5533 5535 5537 5539 5541 5542 5543 5544 5545 5545 5545 5543 5542 5541 5542 5543 5543 5543 5543 5543 5542
5399 5406 5412 5420 5427 5433 5440 5447 5452 5458 5464 5471 5478 5483 5489 5494 5499 5504 5509 5514 5517 5520 5523 5526 5528 5529 5531 5533 5535 5536 5536 5537 5537 5536 5534 5533 5532 5532 5532 5532 5532 5532 5532
5388 5394 5400 5407 5413 5420 5427 5434 5440 5446 5452 5458 5465 5470 5475 5481 5487 5492 5497 5503 5507 5509 5512 5516 5519 5521 5523 5524 5526 5527 5527 5527 5527 5527 5525 5523 5522 5522 5522 5521 5521 5520 5520
5376 5381 5387 5394 5401 5407 5414 5421 5427 5433 5439 5445 5451 5457 5463 5468 5474 5480 5486 5490 5495 5498 5501 5505 5508 5512 5514 5515 5517 5517 5518 5518 5517 5517 5515 5514 5513 5512 5512 5511 5510 5509 5509
5363 5368 5374 5381 5388 5395 5402 5408 5414 5420 5426 5433 5439 5444 5450 5456 5462 5467 5473 5478 5482 5486 5490 5493 5497 5500 5502 5504 5506 5508 5509 5509 5509 5508 5507 5506 5505 5504 5503 5501 5500 5498 5498
5351 5357 5363 5370 5377 5383 5389 5395 5401 5407 5413 5419 5425 5431 5437 5444 5449 5453 5459 5464 5469 5474 5478 5482 5486 5489 5491 5493 5495 5496 5498 5500 5501 5501 5499 5499 5497 5496 5494 5491 5490 5489 5489
5338 5345 5352 5358 5364 5370 5376 5382 5388 5394 5400 5406 5412 5418 5425 5431 5436 5440 5445 5450 5456 5461 5466 5471 5475 5477 5480 5483 5484 5484 5486 5487 5489 5490 5491 5490 5488 5487 5486 5484 5481 5477 5475
5328 5334 5339 5345 5351 5358 5365 5370 5376 5381 5387 5393 5399 5405 5411 5417 5423 5428 5432 5437 5443 5449 5454 5458 5462 5466 5469 5471 5472 5473 5474 5475 5476 5478 5478 5478 5477 5476 5474 5471 5468 5465 5464
5317 5322 5328 5333 5340 5347 5353 5358 5363 5368 5374 5379 5385 5391 5397 5404 5409 5415 5419 5425 5431 5436 5441 5446 5450 5453 5456 5458 5460 5462 5463 5464 5464 5464 5464 5464 5464 5463 5462 5461 5459 5455 5452
5305 5311 5316 5322 5328 5334 5340 5346 5351 5356 5361 5366 5372 5378 5384 5391 5397 5403 5408 5413 5418 5423 5427 5432 5437 5440 5444 5446 5449 5451 5453 5453 5452 5452 5451 5451 5450 5450 5449 5448 5447 5446 5443
5293 5299 5304 5310 5315 5321 5327 5332 5337 5342 5347 5353 5359 5366 5372 5378 5385 5391 5396 5401 5407 5411 5415 5420 5424 5428 5431 5434 5436 5438 5439 5439 5439 5439 5438 5438 5437 5437 5436 5435 5433 5432 5432
5283 5288 5292 5298 5303 5308 5314 5319 5325 5329 5334 5341 5347 5354 5361 5367 5373 5379 5385 5390 5395 5400 5404 5408 5412 5415 5417 5420 5422 5424 5425 5426 5427 5427 5427 5426 5426 5425 5423 5421 5419 5418 5417
5272 5276 5281 5285 5291 5296 5301 5306 5311 5316 5322 5329 5336 5343 5349 5355 5361 5367 5373 5378 5382 5387 5391 5395 5398 5401 5403 5406 5408 5409 5411 5414 5415 5415 5415 5413 5411 5410 5409 5408 5406 5404 5403
5261 5265 5269 5273 5277 5283 5288 5293 5299 5304 5309 5317 5324 5331 5338 5344 5351 5356 5363 5368 5372 5376 5379 5382 5385 5387 5389 5391 5394 5396 5398 5399 5400 5401 5400 5399 5398 5397 5395 5394 5393 5391 5389
5252 5255 5259 5262 5266 5272 5277 5283 5288 5293 5300 5307 5314 5320 5328 5334 5340 5346 5352 5357 5360 5363 5366 5369 5372 5374 5376 5379 5381 5383 5384 5386 5387 5387 5387 5387 5386 5385 5382 5380 5379 5378 5376
5242 5245 5249 5253 5256 5261 5266 5271 5277 5284 5289 5296 5303 5310 5317 5323 5329 5334 5340 5344 5347 5351 5353 5356 5359 5361 5363 5366 5368 5370 5371 5372 5373 5374 5374 5373 5373 5371 5369 5368 5366 5364 5363
5234 5237 5241 5244 5247 5251 5255 5260 5265 5270 5276 5283 5290 5297 5305 5311 5317 5322 5327 5331 5334 5337 5339 5342 5345 5347 5350 5352 5354 5356 5357 5359 5360 5361 5360 5360 5360 5359 5357 5355 5353 5352 5351
5226 5229 5232 5235 5238 5242 5246 5250 5255 5259 5264 5270 5277 5284 5291 5298 5304 5309 5314 5317 5320 5323 5325 5328 5331 5333 5335 5338 5340 5342 5343 5345 5346 5347 5348 5347 5347 5346 5344 5343 5342 5340 5338
5218 5222 5225 5227 5230 5234 5237 5241 5245 5249 5253 5259 5264 5270 5277 5283 5289 5294 5299 5302 5306 5309 5311 5314 5316 5319 5321 5323 5325 5327 5330 5332 5333 5334 5335 5334 5334 5333 5332 5331 5329 5327 5325
5211 5213 5217 5219 5222 5225 5228 5232 5235 5239 5244 5248 5253 5259 5266 5270 5274 5278 5283 5287 5290 5294 5297 5299 5302 5304 5307 5309 5311 5314 5316 5318 5319 5321 5321 5321 5320 5320 5319 5318 5316 5314 5312
5204 5206 5209 5211 5214 5217 5220 5223 5226 5230 5234 5239 5243 5248 5254 5257 5261 5264 5268 5271 5274 5278 5282 5285 5288 5290 5292 5295 5298 5300 5302 5304 5306 5307 5308 5308 5307 5307 5305 5304 5303 5301 5299
5198 5200 5202 5205 5207 5210 5213 5215 5218 5222 5226 5229 5233 5237 5240 5244 5247 5250 5254 5257 5261 5264 5268 5271 5274 5276 5278 5281 5284 5287 5289 5291 5293 5295 5296 5296 5295 5294 5293 5292 5291 5289 5288
5192 5194 5196 5198 5200 5203 5205 5207 5210 5213 5216 5219 5222 5225 5228 5231 5235 5238 5241 5245 5248 5251 5254 5257 5259 5262 5265 5268 5271 5273 5276 5278 5279 5281 5283 5284 5283 5282 5281 5280 5280 5279 5277
5186 5188 5190 5191 5193 5195 5198 5200 5202 5204 5206 5209 5212 5215 5217 5220 5223 5226 5229 5232 5235 5238 5240 5243 5246 5249 5252 5255 5258 5261 5263 5266 5268 5270 5271 5272 5272 5271 5270 5269 5269 5267 5266
5179 5181 5183 5184 5186 5188 5190 5192 5194 5196 5198 5200 5203 5205 5207 5210 5212 5215 5217 5220 5223 5226 5228 5231 5235 5238 5241 5244 5247 5250 5253 5255 5257 5259 5260 5261 5261 5261 5260 5259 5258 5257 5255